When you browse on this site, cookies collect data to enhance your experience and personalize the content and advertising you see.
Visit our Privacy Policy to learn more. By continuing to use the site, you agree to this use of cookies and data.
  • In Hungary
  • List of Countries
  • For 7 days
  • Water Temperature
  • Weather Map
  • News
  • Weather Widgets
  • user-avatar
    Login

    Hourly Weather Ptakowice

    Today, 18 September, Wednesday

    Time Temperature Precipitation Wind Pressure Humidity
    00:00 +7°C° 0 mm 6 mps 734 mmHg 79%
    01:00 +7°C° 0 mm 6 mps 734 mmHg 84%
    02:00 +5°C° 0.1 mm 6 mps 734 mmHg 83%
    03:00 +5°C° 0.1 mm 6 mps 734 mmHg 83%
    04:00 +5°C° 0.1 mm 7 mps 734 mmHg 82%
    05:00 +5°C° 0 mm 7 mps 735 mmHg 81%
    06:00 +5°C° 0 mm 7 mps 736 mmHg 80%
    07:00 +5°C° 0 mm 7 mps 737 mmHg 79%
    08:00 +7°C° 0 mm 6 mps 738 mmHg 76%
    09:00 +8°C° 0 mm 6 mps 738 mmHg 73%
    10:00 +9°C° 0 mm 6 mps 739 mmHg 70%
    11:00 +10°C° 0 mm 6 mps 739 mmHg 64%
    12:00 +11°C° 0 mm 6 mps 738 mmHg 59%
    13:00 +13°C° 0 mm 6 mps 738 mmHg 53%
    14:00 +13°C° 0 mm 6 mps 738 mmHg 51%
    15:00 +13°C° 0 mm 5 mps 738 mmHg 49%
    16:00 +13°C° 0 mm 5 mps 738 mmHg 46%
    17:00 +12°C° 0 mm 5 mps 739 mmHg 53%
    18:00 +11°C° 0 mm 4 mps 739 mmHg 59%
    19:00 +10°C° 0 mm 4 mps 739 mmHg 66%
    20:00 +8°C° 0 mm 4 mps 740 mmHg 66%
    21:00 +9°C° 0 mm 3 mps 740 mmHg 66%
    22:00 +9°C° 0 mm 3 mps 740 mmHg 67%
    23:00 +9°C° 0 mm 3 mps 740 mmHg 67%

    Tomorrow, 19 September, Thursday

    Time Temperature Precipitation Wind Pressure Humidity
    00:00 +9°C° 0 mm 3 mps 741 mmHg 67%
    01:00 +9°C° 0 mm 3 mps 741 mmHg 67%
    02:00 +8°C° 0 mm 3 mps 741 mmHg 70%
    03:00 +7°C° 0 mm 3 mps 741 mmHg 73%
    04:00 +6°C° 0 mm 2 mps 741 mmHg 76%
    05:00 +5°C° 0 mm 3 mps 741 mmHg 74%
    06:00 +7°C° 0 mm 3 mps 741 mmHg 72%
    07:00 +7°C° 0 mm 3 mps 741 mmHg 71%
    08:00 +8°C° 0 mm 3 mps 742 mmHg 68%
    09:00 +10°C° 0 mm 4 mps 742 mmHg 65%
    10:00 +11°C° 0 mm 4 mps 742 mmHg 62%
    11:00 +11°C° 0.1 mm 4 mps 742 mmHg 59%
    12:00 +12°C° 0.1 mm 4 mps 742 mmHg 57%
    13:00 +13°C° 0.1 mm 4 mps 742 mmHg 54%
    14:00 +13°C° 0.1 mm 4 mps 742 mmHg 56%
    15:00 +13°C° 0.1 mm 4 mps 742 mmHg 58%
    16:00 +12°C° 0.1 mm 4 mps 742 mmHg 60%
    17:00 +11°C° 0.1 mm 4 mps 742 mmHg 64%
    18:00 +10°C° 0.1 mm 3 mps 742 mmHg 69%
    19:00 +9°C° 0.1 mm 2 mps 742 mmHg 74%
    20:00 +9°C° 0 mm 2 mps 742 mmHg 74%
    21:00 +8°C° 0 mm 3 mps 743 mmHg 75%
    22:00 +8°C° 0 mm 3 mps 743 mmHg 76%
    23:00 +7°C° 0 mm 2 mps 743 mmHg 78%

    Day after tomorrow, 20 September, Friday

    Time Temperature Precipitation Wind Pressure Humidity
    00:00 +7°C° 0 mm 2 mps 743 mmHg 80%
    01:00 +6°C° 0 mm 2 mps 743 mmHg 82%
    02:00 +6°C° 0 mm 2 mps 743 mmHg 83%
    03:00 +5°C° 0 mm 2 mps 743 mmHg 85%
    04:00 +5°C° 0 mm 2 mps 743 mmHg 87%
    05:00 +5°C° 0 mm 2 mps 744 mmHg 84%
    06:00 +6°C° 0 mm 2 mps 744 mmHg 82%
    07:00 +6°C° 0 mm 2 mps 744 mmHg 80%
    08:00 +8°C° 0 mm 2 mps 744 mmHg 71%
    09:00 +10°C° 0 mm 2 mps 744 mmHg 63%
    10:00 +13°C° 0 mm 2 mps 745 mmHg 54%
    11:00 +14°C° 0 mm 2 mps 744 mmHg 51%
    12:00 +14°C° 0 mm 2 mps 744 mmHg 47%
    13:00 +15°C° 0 mm 2 mps 744 mmHg 44%
    14:00 +15°C° 0 mm 2 mps 743 mmHg 46%
    15:00 +15°C° 0 mm 2 mps 743 mmHg 48%
    16:00 +14°C° 0 mm 2 mps 743 mmHg 49%
    17:00 +13°C° 0 mm 2 mps 743 mmHg 55%
    18:00 +12°C° 0 mm 1 mps 743 mmHg 60%
    19:00 +10°C° 0 mm 1 mps 743 mmHg 65%
    20:00 +10°C° 0 mm 1 mps 743 mmHg 67%
    21:00 +9°C° 0 mm 0 mps 744 mmHg 69%
    22:00 +8°C° 0 mm 0 mps 744 mmHg 71%
    23:00 +8°C° 0 mm 0 mps 744 mmHg 71%

    21 September, Saturday

    Time Temperature Precipitation Wind Pressure Humidity
    00:00 +9°C° 0 mm 1 mps 744 mmHg 72%
    01:00 +9°C° 0 mm 1 mps 744 mmHg 72%
    02:00 +8°C° 0 mm 1 mps 743 mmHg 72%
    03:00 +8°C° 0 mm 1 mps 743 mmHg 72%
    04:00 +8°C° 0 mm 1 mps 743 mmHg 72%
    05:00 +8°C° 0 mm 1 mps 743 mmHg 69%
    06:00 +9°C° 0 mm 1 mps 743 mmHg 66%
    07:00 +10°C° 0 mm 1 mps 743 mmHg 63%
    08:00 +12°C° 0 mm 2 mps 743 mmHg 57%
    09:00 +14°C° 0 mm 2 mps 743 mmHg 50%
    10:00 +15°C° 0 mm 2 mps 743 mmHg 44%
    11:00 +16°C° 0 mm 2 mps 743 mmHg 41%
    12:00 +17°C° 0 mm 2 mps 742 mmHg 38%
    13:00 +18°C° 0 mm 3 mps 742 mmHg 35%
    14:00 +18°C° 0 mm 2 mps 742 mmHg 36%
    15:00 +18°C° 0 mm 2 mps 741 mmHg 37%
    16:00 +18°C° 0 mm 2 mps 741 mmHg 38%
    17:00 +17°C° 0 mm 2 mps 741 mmHg 42%
    18:00 +15°C° 0 mm 1 mps 741 mmHg 46%
    19:00 +13°C° 0 mm 1 mps 741 mmHg 51%
    20:00 +13°C° 0 mm 1 mps 740 mmHg 52%
    21:00 +12°C° 0 mm 1 mps 740 mmHg 53%
    22:00 +12°C° 0 mm 1 mps 740 mmHg 54%
    23:00 +12°C° 0 mm 2 mps 740 mmHg 55%

    22 September, Sunday

    Time Temperature Precipitation Wind Pressure Humidity
    00:00 +10°C° 0 mm 2 mps 740 mmHg 57%
    01:00 +10°C° 0 mm 2 mps 740 mmHg 58%
    02:00 +10°C° 0 mm 2 mps 739 mmHg 59%
    03:00 +9°C° 0 mm 2 mps 739 mmHg 60%
    04:00 +9°C° 0 mm 2 mps 739 mmHg 61%
    05:00 +10°C° 0 mm 2 mps 739 mmHg 59%
    06:00 +10°C° 0 mm 2 mps 739 mmHg 58%
    07:00 +12°C° 0 mm 2 mps 738 mmHg 57%
    08:00 +14°C° 0 mm 2 mps 738 mmHg 50%
    09:00 +16°C° 0 mm 2 mps 738 mmHg 44%
    10:00 +18°C° 0 mm 2 mps 738 mmHg 37%
    11:00 +19°C° 0 mm 2 mps 738 mmHg 35%
    12:00 +20°C° 0 mm 2 mps 737 mmHg 32%
    13:00 +21°C° 0 mm 2 mps 737 mmHg 30%
    14:00 +21°C° 0 mm 2 mps 736 mmHg 33%
    15:00 +21°C° 0 mm 2 mps 736 mmHg 36%
    16:00 +21°C° 0 mm 2 mps 735 mmHg 38%
    17:00 +19°C° 0 mm 2 mps 735 mmHg 43%
    18:00 +18°C° 0 mm 2 mps 734 mmHg 47%
    19:00 +16°C° 0 mm 2 mps 734 mmHg 51%
    20:00 +16°C° 0 mm 2 mps 734 mmHg 53%
    21:00 +15°C° 0 mm 2 mps 733 mmHg 54%
    22:00 +15°C° 0 mm 1 mps 733 mmHg 55%
    23:00 +15°C° 0 mm 1 mps 733 mmHg 57%

    23 September, Monday

    Time Temperature Precipitation Wind Pressure Humidity
    00:00 +14°C° 0 mm 2 mps 732 mmHg 58%
    01:00 +14°C° 0 mm 2 mps 732 mmHg 60%
    02:00 +14°C° 0 mm 2 mps 731 mmHg 58%
    03:00 +14°C° 0 mm 2 mps 731 mmHg 56%
    04:00 +14°C° 0 mm 2 mps 730 mmHg 55%
    05:00 +14°C° 0 mm 2 mps 730 mmHg 55%
    06:00 +14°C° 0 mm 2 mps 730 mmHg 55%
    07:00 +14°C° 0 mm 2 mps 730 mmHg 55%
    08:00 +16°C° 0 mm 3 mps 730 mmHg 54%
    09:00 +18°C° 0 mm 3 mps 730 mmHg 53%
    10:00 +19°C° 0 mm 3 mps 730 mmHg 52%
    11:00 +20°C° 0 mm 3 mps 730 mmHg 49%
    12:00 +21°C° 0 mm 3 mps 730 mmHg 47%
    13:00 +22°C° 0 mm 4 mps 730 mmHg 44%
    14:00 +20°C° 0 mm 4 mps 730 mmHg 51%
    15:00 +19°C° 0 mm 4 mps 730 mmHg 59%
    16:00 +17°C° 0 mm 4 mps 730 mmHg 67%
    17:00 +15°C° 0.4 mm 4 mps 730 mmHg 73%
    18:00 +14°C° 0.4 mm 4 mps 730 mmHg 80%
    19:00 +13°C° 0.4 mm 4 mps 730 mmHg 87%
    20:00 +13°C° 0.4 mm 4 mps 730 mmHg 88%
    21:00 +13°C° 0.4 mm 5 mps 731 mmHg 89%
    22:00 +13°C° 0.4 mm 5 mps 731 mmHg 90%
    23:00 +13°C° 0.4 mm 5 mps 731 mmHg 90%
    Show more